SWA1418 KSEA-KLAS

Flight info

Callsign SWA1418
Flight time N/A
Altitude 39000
Route SUMMA2 LKV BAARB RYANN TQILA COKTL4
Aircraft B38M/M-SDE1FGHILORVWXY/HB1

Departure

Time 2026-05-06 00:46
Airport Seattle–Tacoma International Airport (KSEA)

Arrival

Time N/A
Airport Harry Reid International Airport (KLAS)
Time Latitude Longitude Altitude Speed Heading
2026-05-06 00:03 47.44056 -122.30384 389 ft 0 kts 12°
2026-05-06 00:29 47.44049 -122.30386 389 ft 4 kts
2026-05-06 00:30 47.44023 -122.30385 389 ft 4 kts 338°
2026-05-06 00:30 47.44004 -122.30363 389 ft 4 kts 295°
2026-05-06 00:30 47.44000 -122.30327 389 ft 2 kts 258°
2026-05-06 00:30 47.44001 -122.30324 389 ft 0 kts 257°
2026-05-06 00:35 47.44000 -122.30331 389 ft 2 kts 257°
2026-05-06 00:35 47.43994 -122.30369 389 ft 6 kts 257°
2026-05-06 00:35 47.43988 -122.30443 388 ft 9 kts 271°
2026-05-06 00:35 47.43991 -122.30548 387 ft 11 kts 273°
2026-05-06 00:36 47.44035 -122.30633 387 ft 12 kts 346°
2026-05-06 00:36 47.44112 -122.30636 389 ft 11 kts
2026-05-06 00:36 47.44187 -122.30635 390 ft 11 kts
2026-05-06 00:36 47.44259 -122.30634 392 ft 10 kts
2026-05-06 00:37 47.44326 -122.30633 395 ft 9 kts
2026-05-06 00:37 47.44387 -122.30632 391 ft 9 kts
2026-05-06 00:37 47.44449 -122.30632 397 ft 9 kts
2026-05-06 00:37 47.44509 -122.30630 396 ft 8 kts 359°
2026-05-06 00:38 47.44567 -122.30630 401 ft 8 kts
2026-05-06 00:38 47.44622 -122.30630 403 ft 8 kts
2026-05-06 00:38 47.44674 -122.30630 404 ft 7 kts
2026-05-06 00:38 47.44722 -122.30629 405 ft 7 kts
2026-05-06 00:39 47.44772 -122.30627 407 ft 7 kts
2026-05-06 00:39 47.44822 -122.30625 408 ft 7 kts
2026-05-06 00:39 47.44871 -122.30624 410 ft 7 kts 359°
2026-05-06 00:39 47.44907 -122.30625 408 ft 6 kts 359°
2026-05-06 00:40 47.44948 -122.30626 410 ft 6 kts 359°
2026-05-06 00:40 47.44985 -122.30629 409 ft 5 kts 358°
2026-05-06 00:40 47.45019 -122.30629 412 ft 5 kts 360°
2026-05-06 00:40 47.45051 -122.30629 416 ft 5 kts
2026-05-06 00:41 47.45089 -122.30629 414 ft 6 kts
2026-05-06 00:41 47.45142 -122.30627 412 ft 10 kts
2026-05-06 00:41 47.45219 -122.30625 418 ft 13 kts
2026-05-06 00:41 47.45320 -122.30624 427 ft 16 kts
2026-05-06 00:42 47.45435 -122.30622 425 ft 18 kts
2026-05-06 00:42 47.45558 -122.30622 434 ft 18 kts
2026-05-06 00:42 47.45679 -122.30619 436 ft 15 kts
2026-05-06 00:42 47.45793 -122.30613 433 ft 18 kts
2026-05-06 00:43 47.45921 -122.30616 433 ft 20 kts 355°
2026-05-06 00:43 47.46043 -122.30619 437 ft 15 kts
2026-05-06 00:43 47.46151 -122.30617 437 ft 16 kts
2026-05-06 00:43 47.46254 -122.30616 436 ft 15 kts
2026-05-06 00:44 47.46352 -122.30628 433 ft 9 kts 333°
2026-05-06 00:44 47.46358 -122.30633 439 ft 1 kts 323°
2026-05-06 00:44 47.46369 -122.30654 442 ft 5 kts 301°
2026-05-06 00:44 47.46369 -122.30731 445 ft 5 kts 251°
2026-05-06 00:45 47.46336 -122.30776 439 ft 5 kts 193°
2026-05-06 00:45 47.46320 -122.30777 440 ft 0 kts 179°
2026-05-06 00:45 47.46275 -122.30778 430 ft 18 kts 180°
2026-05-06 00:45 47.45888 -122.30781 431 ft 96 kts 179°
2026-05-06 00:46 47.45318 -122.30791 417 ft 147 kts 180°
2026-05-06 00:46 47.44119 -122.30869 542 ft 201 kts 184°
2026-05-06 00:46 47.42593 -122.30994 1313 ft 223 kts 188°
2026-05-06 00:46 47.41495 -122.31314 2543 ft 205 kts 198°
2026-05-06 00:47 47.40199 -122.31943 4029 ft 189 kts 188°
2026-05-06 00:47 47.38931 -122.31963 5030 ft 177 kts 180°
2026-05-06 00:47 47.37696 -122.31940 5541 ft 197 kts 179°
2026-05-06 00:47 47.36250 -122.31877 5873 ft 224 kts 178°
2026-05-06 00:48 47.34727 -122.31777 6474 ft 239 kts 177°
2026-05-06 00:48 47.33009 -122.31648 6961 ft 258 kts 177°
2026-05-06 00:48 47.31208 -122.31498 6942 ft 264 kts 176°
2026-05-06 00:48 47.29355 -122.31338 7013 ft 267 kts 176°
2026-05-06 00:49 47.27513 -122.31174 7043 ft 267 kts 176°